When you browse on this site, cookies collect data to enhance your experience and personalize the content and advertising you see.
Visit our Privacy Policy to learn more. By continuing to use the site, you agree to this use of cookies and data.
  • In Romania
  • List of Countries
  • For 7 days
  • Water Temperature
  • Weather Map
  • Weather Widgets
  • user-avatar
    Login

    Hourly Weather Wagadugu

    Today, 5 June, Friday

    Time Temperature Precipitation Wind Pressure Humidity
    00:00 +35°C° 0 mm 2 mps 733 mmHg 38%
    01:00 +35°C° 1 mm 2 mps 732 mmHg 42%
    02:00 +34°C° 1 mm 2 mps 732 mmHg 47%
    03:00 +32°C° 1 mm 2 mps 732 mmHg 51%
    04:00 +33°C° 0 mm 3 mps 732 mmHg 54%
    05:00 +32°C° 0 mm 4 mps 732 mmHg 57%
    06:00 +32°C° 0 mm 6 mps 732 mmHg 62%
    07:00 +33°C° 0 mm 6 mps 733 mmHg 58%
    08:00 +35°C° 0 mm 6 mps 733 mmHg 55%
    09:00 +36°C° 0 mm 5 mps 733 mmHg 52%
    10:00 +37°C° 0 mm 5 mps 733 mmHg 46%
    11:00 +40°C° 0 mm 4 mps 733 mmHg 41%
    12:00 +41°C° 0 mm 4 mps 733 mmHg 35%
    13:00 +42°C° 0 mm 3 mps 732 mmHg 33%
    14:00 +42°C° 0 mm 2 mps 731 mmHg 30%
    15:00 +43°C° 0 mm 2 mps 731 mmHg 27%
    16:00 +42°C° 0 mm 2 mps 731 mmHg 28%
    17:00 +43°C° 0 mm 3 mps 731 mmHg 28%
    18:00 +42°C° 0 mm 4 mps 731 mmHg 29%
    19:00 +39°C° 0.5 mm 6 mps 732 mmHg 39%
    20:00 +35°C° 0.5 mm 8 mps 732 mmHg 50%
    21:00 +32°C° 0.5 mm 10 mps 733 mmHg 61%
    22:00 +31°C° 1.3 mm 8 mps 733 mmHg 64%
    23:00 +30°C° 1.3 mm 6 mps 733 mmHg 67%

    Tomorrow, 6 June, Saturday

    Time Temperature Precipitation Wind Pressure Humidity
    00:00 +29°C° 1.3 mm 5 mps 733 mmHg 70%
    01:00 +30°C° 0.1 mm 5 mps 733 mmHg 66%
    02:00 +30°C° 0.1 mm 5 mps 732 mmHg 62%
    03:00 +32°C° 0.1 mm 5 mps 732 mmHg 58%
    04:00 +30°C° 0 mm 4 mps 732 mmHg 59%
    05:00 +30°C° 0 mm 4 mps 733 mmHg 60%
    06:00 +30°C° 0 mm 3 mps 733 mmHg 62%
    07:00 +31°C° 0 mm 3 mps 733 mmHg 57%
    08:00 +33°C° 0 mm 3 mps 734 mmHg 53%
    09:00 +34°C° 0 mm 3 mps 734 mmHg 48%
    10:00 +35°C° 0 mm 4 mps 734 mmHg 45%
    11:00 +36°C° 0 mm 4 mps 734 mmHg 43%
    12:00 +37°C° 0 mm 5 mps 734 mmHg 40%
    13:00 +39°C° 0 mm 5 mps 733 mmHg 37%
    14:00 +40°C° 0 mm 4 mps 732 mmHg 35%
    15:00 +40°C° 0 mm 3 mps 732 mmHg 32%
    16:00 +40°C° 0 mm 3 mps 731 mmHg 33%
    17:00 +39°C° 0 mm 3 mps 731 mmHg 33%
    18:00 +39°C° 0 mm 2 mps 731 mmHg 34%
    19:00 +37°C° 1.2 mm 4 mps 732 mmHg 42%
    20:00 +35°C° 1.2 mm 5 mps 733 mmHg 49%
    21:00 +33°C° 1.2 mm 6 mps 733 mmHg 57%
    22:00 +32°C° 6.6 mm 6 mps 733 mmHg 59%
    23:00 +29°C° 6.6 mm 7 mps 734 mmHg 62%

    Day after tomorrow, 7 June, Sunday

    Time Temperature Precipitation Wind Pressure Humidity
    00:00 +28°C° 6.6 mm 7 mps 734 mmHg 64%
    01:00 +28°C° 0 mm 6 mps 733 mmHg 64%
    02:00 +29°C° 0 mm 5 mps 733 mmHg 63%
    03:00 +29°C° 0 mm 4 mps 733 mmHg 62%
    04:00 +29°C° 0.1 mm 4 mps 733 mmHg 63%
    05:00 +28°C° 0.1 mm 3 mps 733 mmHg 65%
    06:00 +28°C° 0.1 mm 3 mps 734 mmHg 66%
    07:00 +29°C° 0.4 mm 3 mps 734 mmHg 66%
    08:00 +29°C° 0.4 mm 4 mps 734 mmHg 65%
    09:00 +29°C° 0.4 mm 5 mps 735 mmHg 65%
    10:00 +32°C° 0 mm 5 mps 734 mmHg 62%
    11:00 +33°C° 0 mm 5 mps 734 mmHg 59%
    12:00 +34°C° 0 mm 5 mps 733 mmHg 55%
    13:00 +35°C° 0 mm 4 mps 733 mmHg 50%
    14:00 +36°C° 0 mm 3 mps 732 mmHg 45%
    15:00 +37°C° 0 mm 3 mps 732 mmHg 40%
    16:00 +37°C° 0 mm 2 mps 732 mmHg 40%
    17:00 +37°C° 0 mm 2 mps 731 mmHg 40%
    18:00 +36°C° 0 mm 1 mps 731 mmHg 40%
    19:00 +36°C° 0 mm 2 mps 732 mmHg 42%
    20:00 +36°C° 0 mm 2 mps 732 mmHg 45%
    21:00 +35°C° 0 mm 2 mps 732 mmHg 47%
    22:00 +35°C° 0 mm 2 mps 732 mmHg 48%
    23:00 +34°C° 0 mm 2 mps 732 mmHg 49%

    8 June, Monday

    Time Temperature Precipitation Wind Pressure Humidity
    00:00 +34°C° 0 mm 2 mps 732 mmHg 50%
    01:00 +34°C° 0 mm 2 mps 732 mmHg 51%
    02:00 +33°C° 0 mm 3 mps 732 mmHg 53%
    03:00 +33°C° 0 mm 4 mps 732 mmHg 54%
    04:00 +32°C° 0 mm 4 mps 732 mmHg 56%
    05:00 +32°C° 0 mm 5 mps 732 mmHg 59%
    06:00 +30°C° 0 mm 5 mps 732 mmHg 62%
    07:00 +32°C° 0 mm 5 mps 732 mmHg 59%
    08:00 +33°C° 0 mm 5 mps 733 mmHg 57%
    09:00 +34°C° 0 mm 6 mps 733 mmHg 55%
    10:00 +35°C° 0.1 mm 5 mps 733 mmHg 52%
    11:00 +36°C° 0.1 mm 5 mps 733 mmHg 49%
    12:00 +36°C° 0.1 mm 5 mps 733 mmHg 46%
    13:00 +36°C° 1.3 mm 5 mps 733 mmHg 45%
    14:00 +35°C° 1.3 mm 6 mps 732 mmHg 44%
    15:00 +34°C° 1.3 mm 7 mps 731 mmHg 43%
    16:00 +33°C° 0.4 mm 6 mps 731 mmHg 46%
    17:00 +32°C° 0.4 mm 5 mps 730 mmHg 48%
    18:00 +32°C° 0.4 mm 4 mps 730 mmHg 51%
    19:00 +30°C° 0 mm 4 mps 731 mmHg 55%
    20:00 +29°C° 0 mm 5 mps 731 mmHg 59%
    21:00 +28°C° 0 mm 5 mps 732 mmHg 62%
    22:00 +28°C° 0.2 mm 4 mps 732 mmHg 62%
    23:00 +28°C° 0.2 mm 4 mps 732 mmHg 62%

    9 June, Tuesday

    Time Temperature Precipitation Wind Pressure Humidity
    00:00 +28°C° 0.2 mm 4 mps 733 mmHg 61%
    01:00 +27°C° 0.2 mm 3 mps 732 mmHg 63%
    02:00 +27°C° 0.2 mm 3 mps 732 mmHg 64%
    03:00 +27°C° 0.2 mm 3 mps 732 mmHg 66%
    04:00 +27°C° 0.1 mm 3 mps 732 mmHg 67%
    05:00 +26°C° 0.1 mm 3 mps 732 mmHg 68%
    06:00 +26°C° 0.1 mm 4 mps 732 mmHg 68%
    07:00 +28°C° 0 mm 3 mps 732 mmHg 63%
    08:00 +29°C° 0 mm 3 mps 733 mmHg 58%
    09:00 +30°C° 0 mm 3 mps 733 mmHg 53%
    10:00 +33°C° 0 mm 3 mps 733 mmHg 48%
    11:00 +35°C° 0 mm 4 mps 732 mmHg 42%
    12:00 +36°C° 0 mm 4 mps 732 mmHg 37%
    13:00 +37°C° 0 mm 4 mps 732 mmHg 35%
    14:00 +38°C° 0 mm 3 mps 731 mmHg 33%
    15:00 +39°C° 0 mm 3 mps 731 mmHg 31%
    16:00 +38°C° 0 mm 3 mps 730 mmHg 32%
    17:00 +38°C° 0 mm 3 mps 730 mmHg 33%
    18:00 +38°C° 0 mm 3 mps 730 mmHg 34%
    19:00 +37°C° 0 mm 3 mps 730 mmHg 37%
    20:00 +36°C° 0 mm 3 mps 731 mmHg 39%
    21:00 +35°C° 0 mm 4 mps 731 mmHg 42%
    22:00 +34°C° 0 mm 4 mps 731 mmHg 45%
    23:00 +34°C° 0 mm 4 mps 731 mmHg 47%

    10 June, Wednesday

    Time Temperature Precipitation Wind Pressure Humidity
    00:00 +33°C° 0 mm 5 mps 731 mmHg 50%
    01:00 +33°C° 0 mm 5 mps 731 mmHg 52%
    02:00 +33°C° 0 mm 5 mps 731 mmHg 54%
    03:00 +32°C° 0 mm 5 mps 731 mmHg 57%
    04:00 +30°C° 0 mm 5 mps 731 mmHg 60%
    05:00 +30°C° 0 mm 5 mps 731 mmHg 64%
    06:00 +29°C° 0 mm 6 mps 732 mmHg 68%
    07:00 +30°C° 0 mm 6 mps 732 mmHg 66%
    08:00 +32°C° 0 mm 6 mps 733 mmHg 63%
    09:00 +33°C° 0 mm 7 mps 733 mmHg 60%
    10:00 +35°C° 0 mm 6 mps 733 mmHg 55%
    11:00 +36°C° 0 mm 6 mps 733 mmHg 49%
    12:00 +39°C° 0 mm 6 mps 732 mmHg 43%
    13:00 +40°C° 0 mm 6 mps 732 mmHg 40%
    14:00 +40°C° 0 mm 5 mps 731 mmHg 37%
    15:00 +41°C° 0 mm 5 mps 730 mmHg 35%
    16:00 +41°C° 0 mm 4 mps 730 mmHg 35%
    17:00 +39°C° 0 mm 3 mps 730 mmHg 36%
    18:00 +39°C° 0 mm 3 mps 730 mmHg 36%
    19:00 +38°C° 0 mm 4 mps 731 mmHg 40%
    20:00 +37°C° 0 mm 5 mps 731 mmHg 44%
    21:00 +36°C° 0 mm 6 mps 731 mmHg 47%
    22:00 +35°C° 0 mm 6 mps 731 mmHg 51%
    23:00 +34°C° 0 mm 6 mps 731 mmHg 54%
    Show more